Tracking 27172 objects as of 2-Apr-2023
HD Live streaming from Space Station
objects crossing your sky now

TITAN 34B R/B

Track TITAN 34B R/B now!


NORAD ID: 17507
Int'l Code: 1987-015B
Perigee: 1,074.3 km
Apogee: 38,536.9 km
Inclination: 63.1 °
Period: 702.5 minutes
Semi major axis: 26176 km
RCS: Unknown
Launch date: February 12, 1987
Source: United States (US)
Launch site: AIR FORCE WESTERN TEST RANGE (AFWTR)

Note: This is a ROCKET BODY
Your satellite tracking list
Your tracking list is empty




NASA's NSSDC Master Catalog

Two Line Element Set (TLE):
1 17507U 87015B   23086.89697374 -.00000485  00000-0  19189-2 0  9991
2 17507  63.1382 263.6638 7155729 266.7949  16.7483  2.04990011 28373
Source of the keplerian elements: AFSPC